Regional Weather Roundup
Issued by NWS

Home | Current Version | Previous Version | Graphics & Text | Print | Product List | Glossary On
Versions: 1 2 3 4 5 6 7 8 9 10 11 12 13 14 15 16 17 18 19 20 21 22 23 24 25 26 27
000
ASUS45 KBOU 251007
RWRCO

WEATHER ROUNDUP FOR COLORADO
NATIONAL WEATHER SERVICE DENVER/BOULDER CO
300 AM MST SAT FEB 25 2017

NOTE: "FAIR" INDICATES FEW OR NO CLOUDS BELOW 12000 FEET WITH NO
SIGNIFICANT WEATHER AND/OR OBSTRUCTIONS TO VISIBILITY.

COZ001>005-013-030-031-251100-
...NORTHWEST COLORADO...

CITY           SKY/WX    TMP DP  RH WIND       PRES   REMARKS
CRAIG          FLURRIES  10   6  84 CALM      30.06F
HAYDEN         MOCLDY    10   5  79 CALM      30.03F
MEEKER         CLOUDY    11   6  81 E6        30.04F WCI   1
MOUNT WERNER   NOT AVBL
STEAMBOAT SPGS CLOUDY     6   3  87 CALM      30.02S
WALDEN         NOT AVBL
$$

COZ006>008-011-251100-
...WEST CENTRAL VALLEYS...

CITY           SKY/WX    TMP DP  RH WIND       PRES   REMARKS
GRAND JUNCTION FAIR      17  15  92 E3        30.09F
MONTROSE       FAIR      15   9  76 S6        30.11S WCI   6
EAGLE          FAIR       9   5  84 E12       30.05S WCI  -6
RIFLE          MOCLDY    11   9  92 CALM      30.09F
DELTA          FAIR      21  12  67 SE3       30.11S
NUCLA          FAIR      18   9  68 E8        30.10F WCI   7
$$

COZ017>023-064>068-251100-
...SOUTHWEST COLORADO...

CITY           SKY/WX    TMP DP  RH WIND       PRES   REMARKS
DURANGO        FAIR      14   6  70 NE3       30.04S
CORTEZ         FAIR      15  11  83 E5        30.08F WCI   8
PAGOSA SPRINGS FAIR       5   1  82 CALM      30.02S
TELLURIDE      CLOUDY     9   3  77 SE3       29.98F
WOLF CREEK PAS FAIR      -4  -6  92 SW8       29.88F WCI -19
$$

COZ009-010-012-014-032>034-037-058>063-251100-
...CENTRAL COLORADO...

CITY           SKY/WX    TMP DP  RH WIND       PRES   REMARKS
ASPEN          FAIR       6   1  80 S6        29.97F WCI  -4
BUENA VISTA    FAIR      15  -5  41 W12       29.94F WCI   1
COPPER MTN     MOCLDY     0  -8  71 MISG      29.76S
BERTHOUD PASS  CLOUDY    -9 -18  64 NW21G26   29.70S WCI -35
COTTONWOOD PAS FAIR      10  -6  48 W16G35    29.84F WCI  -7
GUNNISON       FAIR       4   1  88 NE3       30.02S
KREMMLING      FAIR      12   7  79 CALM      29.99S
LEADVILLE      FAIR       1  -5  75 N6        29.85S WCI -10
MONARCH PASS   CLOUDY    -2  -8  78 W30       29.87F WCI -29
SALIDA         FAIR      17  -1  44 SW10      30.03F WCI   5
SUNLIGHT       NOT AVBL
WILKERSON PASS FAIR       0  -6  78 W7G21     29.78F WCI -13
$$

COZ069>075-251100-
...SAN LUIS VALLEY/SANGRE DE CRISTO MOUNTAINS...

CITY           SKY/WX    TMP DP  RH WIND       PRES   REMARKS
ALAMOSA        FAIR      13   6  74 N3        29.98F
LA VETA PASS   FAIR       5   1  85 SW8       29.85F WCI  -8
SAGUACHE       FAIR      10   1  67 N9        29.98F WCI  -2
$$

COZ035-036-038>040-251100-
...NORTHERN COLORADO FRONT RANGE...

CITY           SKY/WX    TMP DP  RH WIND       PRES   REMARKS
DENVER INTL AP FAIR      18  11  74 SW17      29.94F WCI   3
DMNS CITY PARK   N/A     20  13  73 S6G14     29.96F WCI  12
AURORA         PTCLDY    17  11  79 S14       29.94F WCI   2
FRONT RANGE AP FAIR      21  14  73 S15       29.95F WCI   8
ERIE MUNI ARPT FAIR      15  10  83 SW6       29.95F WCI   6
BOULDER MUN AP FAIR      14  10  85 NE6       29.94F WCI   5
CENTENNIAL     FAIR      15   9  76 S7        29.94F WCI   5
BROOMFIELD     FAIR      21   5  49 S6        29.94F WCI  14
FORT COLLINS   FAIR      12   8  84 N7        29.97F WCI   1
LONGMONT       FAIR      10   7  87 NW5       29.99S WCI   1
$$

COZ041-046-047-076>085-087-088-251100-
...PIKES PEAK/PALMER DIVIDE AND SOUTHERN FOOTHILLS...

CITY           SKY/WX    TMP DP  RH WIND       PRES   REMARKS
COLO. SPRINGS  FAIR      12   6  77 E3        29.99F
A. F. ACADEMY  CLOUDY    13   9  84 CALM      29.96S
SCHRIEVER AFB  FAIR      11   8  86 CALM      29.99F
ELLICOTT       LGT RAIN N/A N/A N/A SW3         N/A
FALCON         LGT SNOW  13  11  92 SW3       29.96F
FORT CARSON    FAIR      13   8  80 S5        29.99F WCI   5
LIMON          MOCLDY    17  13  84 SW7       29.98F WCI   8
MONUMENT HILL  FAIR       9   5  85 SW9       29.93F WCI  -5
TRINIDAD       FAIR       9   4  80 SW5       30.00F WCI   1
$$

COZ042>045-048>051-090-091-251100-
...NORTHEAST COLORADO...

CITY           SKY/WX    TMP DP  RH WIND       PRES   REMARKS
GREELEY ARPT   FAIR      10   7  87 NW5       30.00F WCI   2
AKRON          FAIR      16  10  77 SW9       29.97F WCI   4
BURLINGTON     FAIR      17  13  84 SW7       30.04F WCI   8
WRAY           NOT AVBL
STERLING       FAIR       9   5  85 S5        30.00F WCI   0
HOLYOKE        FAIR      12   9  85 SW9       30.03F WCI   0
FORT MORGAN    FAIR      13  10  86 W6        29.99F WCI   4
$$

COZ086-089-092>099-251100-
...SOUTHEAST COLORADO...

CITY           SKY/WX    TMP DP  RH WIND       PRES   REMARKS
PUEBLO         FAIR      14   7  73 N5        30.04F WCI   6
LA JUNTA       CLOUDY    23  16  74 S6        30.07F WCI  16
LAMAR          FAIR      21  16  81 SW5       30.08F WCI  15
SPRINGFIELD      N/A      8   5  87 SW7       30.08S WCI  -3
$$




USA.gov is the U.S. government's official web portal to all federal, state and local government web resources and services.